User: anonymous   Login
Location: Unspecified
(0.0000°N, 0.0000°E)
Time: 23:20:46
(UTC+01:00)
Language:

Sapphire - Orbit

View from above orbital plane
View from above orbital plane
View from above satellite
View from above satellite

Ground track
Ground track

The orbit data is extracted from the following two-line orbital elements,

1 26932U 01043D   15024.16541318  .00000055  00000-0  53155-4 0  8117
2 26932 067.0557 189.7609 0008809 270.2645 089.7446 14.30095581695245
Epoch (UTC): 24 January 2015 03:58:11
Eccentricity: 0.0008809
inclination: 67.0557°
perigee height: 785 km
apogee height: 798 km
right ascension of ascending node: 189.7609°
argument of perigee: 270.2645°
revolutions per day: 14.30095581
mean anomaly at epoch: 89.7446°
orbit number at epoch: 69524

The dashed part of the orbit path shows where the satellite is in the earth's shadow,  

DLR